Location: Mount Kobau Star Party
(49.1167°N, 119.7333°W)
Time: 11:29:40
(UTC-07:00)

ARIANE 6 FM1 Upper Stage - Pass Details

Date: 13 April 2026
Orbit: 526 x 601 km, 62.0° (Epoch: 18 May)

Event Time Altitude Azimuth Distance (km) Brightness Sun altitude
Rises 20:53:13 0° 242° (WSW) 2,722 6.7 -10.6°
Reaches altitude 10° 20:55:32 10° 250° (WSW) 1,818 5.9 -11.0°
Maximum altitude 20:59:26 43° 322° (NW) 767 3.9 -11.5°
Drops below altitude 10° 21:03:18 10° 36° (NE) 1,792 5.2 -12.1°
Sets 21:05:34 0° 43° (NE) 2,677 6.0 -12.4°
